User: anonymous   Login
Location: Observatorio Las Palmas
(29.0667°N, 110.9333°W)
Time: 03:45:24
(UTC-07:00)
Language:

Skynet4D Del rocket - Orbit

View from above orbital plane
View from above orbital plane
View from above satellite
View from above satellite

Ground track
Ground track

The orbit data is extracted from the following two-line orbital elements,

1 25135U 98002B   16041.48683185  .00000145  00000-0  23616-4 0  9992
2 25135  26.8853 245.8066 0356463 291.2043 149.1489 13.62326344901289
Epoch (UTC): 10 February 2016 11:41:02
Eccentricity: 0.0356463
inclination: 26.8853°
perigee height: 763 km
apogee height: 1291 km
right ascension of ascending node: 245.8066°
argument of perigee: 291.2043°
revolutions per day: 13.62326344
mean anomaly at epoch: 149.1489°
orbit number at epoch: 90128

The dashed part of the orbit path shows where the satellite is in the earth's shadow,  

DLR